小惑星2006 RP118

2006 RP118

English version
Home page
Total 6,336 html files since Dec. 4, 1995
Updated on February 4, 2008

---------------------------------------------------------------------

・ プロフィール

発見日 2006年9月14日
発見光度
発見者

・ 軌道要素

The following orbital elements are taken from MPEC 2008-B50:

Epoch 2006 Sept. 2.0 TT = JDT 2453980.5                 MPC
M 322.34837              (2000.0)            P               Q
n   0.11045802     Peri.   94.90679     -0.46442844     -0.88556707
a   4.3020080      Node    22.77288     +0.80327191     -0.42540505
e   0.5946382      Incl.    1.30052     +0.37290812     -0.18655161
P   8.92           H   17.4           G   0.15
From 52 observations 2006 Sept. 14-22.

・ 光度変化

        H = 17.4  G = 0.15

---------------------------------------------------------------------

軌道要素はMPCのEphemerides and Orbital Elementsに掲載されたものです。
光度グラフはComet for Windowsで作成したものです。

---------------------------------------------------------------------

Copyright(C) 1995-2008 Seiichi Yoshida (comet@aerith.net). All rights reserved.